Regional Weather Roundup
Issued by NWS New Orleans/Baton Rouge, LA

Home | Current Version | Previous Version | Text Only | Print | Product List | Glossary On
Versions: 1 2 3 4 5 6 7 8 9 10 11 12 13 14 15 16 17 18 19 20 21 22 23 24 25 26 27
000
ASUS44 KLIX 280413
RWRLIX
NEW ORLEANS REGIONAL WEATHER ROUNDUP
NATIONAL WEATHER SERVICE NEW ORLEANS LA
1100 PM CDT MON MAR 27 2017

NOTE: "FAIR" INDICATES FEW OR NO CLOUDS BELOW 12,000 FEET WITH NO
      SIGNIFICANT WEATHER AND/OR OBSTRUCTIONS TO VISIBILITY.
      SKY/WX - SKY CONDITION AND SIGNIFICANT WEATHER.
      TMP - AIR TEMPERATURE.     DP    - DEWPOINT TEMPERATURE.
      RH  - RELATIVE HUMIDITY.   PRES  - PRESSURE.
      HI  - HEAT INDEX.          WCI   - WIND CHILL INDEX.

*  THESE STATIONS ARE NOT NWS OR FAA STATIONS AND ARE NOT UNDER
   NWS QUALITY CONTROL.

LAZ038-040-048-061>063-065>067-069-280500-
SOUTHEAST LOUISIANA

CITY           SKY/WX    TMP DP  RH WIND       PRES   REMARKS
N.O. INTL ARPT MOCLDY    71  69  93 S8        29.96F
N.O. LAKEFRONT PTCLDY    72  69  90 S9        29.97S
N.O. DOWNTOWN*   N/A     74  69  85 S7        29.97F
RESERVE*       CLOUDY    72  70  93 S6        29.96F
SLIDELL        CLOUDY    72  69  90 S6        29.96S
BATON ROUGE    CLEAR     72  67  84 S7        29.95R
BOOTHVILLE     CLOUDY    72  72 100 SE8       29.99F
BELLE CHASSE   MOCLDY    72  69  90 S6        29.97F
BOGALUSA*      NOT AVBL
GALLIANO*      CLEAR     72  68  87 S6        29.97F
NEW ROADS*       N/A     70  67  92 S6        29.95R
GONZALES*        N/A     70  68  92 S5        29.95S
HAMMOND*       PTCLDY    70  64  83 S5        29.96S
HOUMA*         PTCLDY    73  69  87 S10G17    29.97S
PORT FOURCHON* CLEAR     73  72  94 S9        29.97F

$$

MSZ070-080>082-280500-
SOUTHERN MISSISSIPPI

CITY           SKY/WX    TMP DP  RH WIND       PRES   REMARKS
MCCOMB         CLEAR     67  62  84 S3        29.96R
GULFPORT       MOCLDY    73  69  87 S8        29.98S
BILOXI         PTCLDY    72  69  90 S12       29.98F
PASCAGOULA     MOCLDY    72  67  84 S6        29.99S

$$

COASTAL OBSERVATIONS
LAKE AND NEARSHORE STATIONS

STATION/POSITION TIME  TEMP    WIND        PRES    WAVE
                       AIR SEA DIR/SP/G            HT/PER
                 (UTC) (F)     (DEG/KT/KT) (MB)    (FT/S)
PASCAGOULA       0348   72     190/ 10/ 13 1015.3
WAVELAND YACHT   0348   73 76  200/  7/ 13 1015.0
GRAND ISLE       0348   73 76  180/  7/ 11 1014.9
SOUTHWEST PASS   0348          170/ 10/ 12   N/A
NEW CANAL        0348   73 72  190/  6/  9 1014.5
SHELL BEACH      0348   72 76  170/  8/ 11 1015.2

OFFSHORE STATIONS

STATION/POSITION TIME  TEMP    WIND        PRES    WAVE
                       AIR SEA DIR/SP/G            HT/PER
                 (UTC) (F)     (DEG/KT/KT) (MB)    (FT/S)
64 S DAUPHIN ISL 0350   73 73  160/ 12/ 14 1016.1    3/ 5

$$





USA.gov is the U.S. government's official web portal to all federal, state and local government web resources and services.